Total_Precipitation_Accumulation
2.39 2.66 2.49 2.25 2.34 2.38 2.58 2.89 2.93 2.45 2.06 1.92 1.88 1.90 2.16 2.41 2.77 2.48 2.26 2.39 2.17 2.00 1.91 1.84 1.82 1.90 2.01 2.07 2.12 2.21 2.33 2.47 2.63 2.87 3.28 3.76 4.21 4.63
2.46 2.67 2.62 2.45 2.53 2.49 2.60 2.82 3.04 2.89 2.35 1.91 1.97 1.99 2.12 2.00 2.43 2.23 2.20 2.34 2.11 1.98 1.93 1.90 1.84 1.83 1.87 1.93 1.96 1.91 1.87 1.92 1.96 2.05 2.23 2.44 2.74 3.14
2.35 2.50 2.57 2.78 2.81 2.76 2.90 2.94 2.99 3.04 2.65 2.12 2.13 2.27 2.31 2.18 2.16 2.08 2.03 2.04 1.95 2.05 1.91 1.89 1.84 1.74 1.65 1.61 1.66 1.69 1.66 1.68 1.69 1.73 1.80 1.82 1.87 2.06
2.43 2.68 2.63 2.75 2.85 2.93 3.11 2.91 2.97 3.28 3.12 2.66 2.55 2.67 2.59 2.40 2.32 2.21 1.90 1.77 1.78 2.05 1.90 1.80 1.74 1.66 1.61 1.51 1.45 1.48 1.52 1.53 1.52 1.55 1.58 1.54 1.54 1.63
2.58 2.69 2.78 3.08 2.94 3.00 3.01 2.91 2.93 3.15 3.35 3.03 2.76 2.90 2.78 2.54 2.56 2.24 2.03 2.09 1.82 1.90 1.95 1.81 1.69 1.64 1.58 1.53 1.47 1.43 1.39 1.37 1.31 1.34 1.44 1.49 1.51 1.54
2.69 2.77 2.82 2.96 3.05 3.25 3.26 3.30 3.42 3.57 3.68 3.44 3.16 3.19 3.17 3.10 2.97 2.51 2.39 2.27 2.09 1.86 1.97 1.87 1.78 1.69 1.63 1.51 1.41 1.39 1.39 1.36 1.35 1.31 1.32 1.36 1.41 1.47
2.83 2.78 2.76 2.95 3.08 3.26 3.11 3.31 3.66 3.80 3.87 3.83 3.68 3.79 3.67 3.58 3.19 2.81 2.68 2.55 2.34 2.03 1.99 1.85 1.80 1.68 1.64 1.64 1.57 1.51 1.46 1.42 1.41 1.43 1.41 1.36 1.36 1.41
2.88 2.91 2.84 2.84 2.76 2.79 2.83 2.99 3.27 3.43 3.59 3.78 3.82 3.84 3.78 3.69 3.53 3.26 2.91 2.66 2.36 2.13 2.24 2.06 1.92 1.84 1.68 1.56 1.69 1.64 1.56 1.49 1.45 1.44 1.46 1.46 1.46 1.49
2.87 2.92 2.64 2.47 2.62 2.47 2.63 2.74 2.72 2.74 2.84 3.13 3.27 3.23 3.48 3.69 3.70 3.25 2.91 2.61 2.33 2.22 2.39 2.16 1.95 1.84 1.73 1.71 1.82 1.64 1.57 1.52 1.47 1.42 1.41 1.41 1.44 1.48
2.58 2.64 2.61 2.49 2.46 2.59 2.60 2.47 2.22 2.13 2.27 2.26 2.29 2.52 2.89 3.34 3.52 3.36 3.36 3.05 2.65 2.38 2.38 2.23 1.96 1.81 1.66 1.65 1.84 1.72 1.57 1.52 1.48 1.45 1.39 1.34 1.35 1.38
2.53 2.55 2.52 2.34 2.49 2.46 2.38 2.31 2.15 1.97 1.99 2.06 2.08 2.28 2.59 2.88 3.19 3.28 3.21 3.15 2.73 2.35 2.26 2.19 1.97 1.95 1.83 1.65 1.62 1.71 1.58 1.51 1.51 1.50 1.45 1.39 1.37 1.38
2.60 2.62 2.61 2.39 2.45 2.39 2.28 2.27 2.13 2.04 2.07 2.03 2.04 2.06 2.08 2.41 2.82 2.82 2.86 2.96 2.74 2.46 2.18 2.21 2.05 2.14 2.04 1.64 1.45 1.43 1.44 1.51 1.52 1.44 1.40 1.37 1.40 1.24
2.52 2.47 2.50 2.55 2.30 2.14 2.04 1.99 2.06 2.19 2.26 2.13 2.02 1.97 2.00 2.10 2.31 2.40 2.50 2.62 2.58 2.30 2.05 2.23 2.17 2.19 2.11 1.76 1.54 1.47 1.43 1.38 1.34 1.31 1.35 1.41 1.42 1.24
2.39 2.39 2.43 2.44 2.16 1.93 1.71 1.65 1.75 1.80 1.93 2.01 1.94 1.89 1.88 1.87 2.05 2.37 2.53 2.57 2.53 2.37 2.31 2.31 2.24 2.22 2.21 1.99 1.70 1.52 1.45 1.36 1.30 1.21 1.18 1.44 1.49 1.49
2.09 2.33 2.37 2.22 2.01 1.84 1.73 1.67 1.61 1.53 1.65 1.80 1.69 1.69 1.79 1.90 2.12 2.46 2.68 2.85 2.77 2.48 2.31 2.30 2.26 2.23 2.22 1.97 1.67 1.51 1.49 1.43 1.37 1.38 1.36 1.36 1.37 1.43
2.01 2.23 2.32 2.28 2.10 1.95 1.83 1.68 1.49 1.47 1.52 1.61 1.72 1.73 1.86 1.98 2.07 2.21 2.53 2.74 2.83 2.61 2.31 2.23 2.26 2.31 2.18 1.97 1.80 1.58 1.50 1.45 1.40 1.45 1.51 1.51 1.49 1.49
2.09 2.18 2.33 2.36 2.31 2.18 2.01 1.87 1.73 1.61 1.54 1.54 1.68 1.73 1.76 1.81 1.81 1.86 2.12 2.32 2.34 2.26 2.21 2.21 2.30 2.38 2.38 2.28 2.01 1.63 1.48 1.41 1.39 1.56 1.68 1.61 1.51 1.48
1.95 2.00 2.27 2.34 2.36 2.33 2.20 2.00 1.84 1.74 1.67 1.67 1.72 1.74 1.74 1.81 1.87 1.89 2.00 2.15 2.18 2.13 2.11 2.09 2.33 2.56 2.54 2.38 2.06 1.80 1.59 1.48 1.52 1.72 1.81 1.71 1.56 1.48
1.59 1.71 2.01 2.21 2.29 2.31 2.23 2.01 1.84 1.85 1.93 1.87 1.82 1.78 1.80 1.83 1.95 1.99 2.04 2.17 2.23 2.22 2.15 2.20 2.35 2.51 2.44 2.15 1.86 1.69 1.71 1.68 1.72 1.73 1.73 1.69 1.60 1.53
1.47 1.60 1.85 2.11 2.22 2.28 2.28 2.22 2.09 2.07 2.09 2.04 1.97 1.91 1.89 1.92 1.91 1.95 1.99 2.07 2.12 2.20 2.16 2.13 2.17 2.18 2.17 2.08 1.95 1.73 1.69 1.85 1.92 1.85 1.76 1.78 1.73 1.75
1.65 1.66 1.75 1.94 2.13 2.24 2.27 2.28 2.26 2.26 2.26 2.25 2.17 2.11 2.07 2.09 2.01 1.91 1.92 2.03 2.04 2.04 1.98 1.79 1.80 2.06 2.26 2.45 2.25 1.79 1.66 1.76 1.85 1.89 1.86 1.91 1.84 1.78
1.74 1.74 1.80 1.94 2.12 2.27 2.32 2.32 2.37 2.33 2.30 2.26 2.20 2.14 2.08 2.08 2.07 2.03 2.04 2.09 2.03 1.97 1.95 1.90 2.00 2.24 2.35 2.33 2.06 1.83 1.74 1.76 1.85 1.86 1.78 1.74 1.72 1.64
1.93 1.93 1.99 2.12 2.20 2.27 2.25 2.17 2.15 2.20 2.17 2.13 2.10 2.08 2.03 2.00 2.03 2.09 2.09 2.14 2.12 2.10 2.16 2.21 2.24 2.25 2.19 2.16 2.06 1.93 1.86 1.85 1.86 1.78 1.59 1.53 1.40 1.30